Weather in Samotoivka

Ukraine / Sumi District     50°48′42″N   35°08′32″E
temp.,
°C
wind,
m/s
gust,
m/s
humid.,
%
clouds,
%
prec.,
mm/h
press.,
hPa
HPBL,
m
21 october, thu
thu2100:00+9ssw81751100 0.0 1019595
03:00+10sw81866100 0.0 1017634
06:00+9sw81781100 0.0 1015501
09:00+10ssw91781100 0.0 1014552
12:00+14sw10155898 0.0 1013789
15:00+16sw9165150 0.0 1011980
18:00+14sw91756100 0.0 1010921
21:00+12ssw10186289 0.0 1009782
22 october, fri
fri2200:00+11ssw9177024 0.0 1008622
03:00+9ssw81682100 0.0 1007485
06:00+9sw71484100 0.0 1007444
09:00+11sw71572100 0.0 1009616
12:00+15w8124499 0.0 10101290
15:00+16w814395 0.0 10111738
18:00+12wsw511503 0.0 1012325
21:00+10sw4106399 0.0 1013194
23 october, sat
sat2300:00+9wsw3106722 0.0 1013191
03:00+9wsw386388 0.0 1013342
06:00+8ssw347215 0.0 1013105
09:00+9wsw5126545 0.0 1013497
12:00+12w710445 0.0 10131298
15:00+12w8114068 0.0 10131892
18:00+8wnw611530 0.0 1016687
21:00+6wsw511615 0.0 1018348
24 october, sun
sun2400:00+4w410685 0.0 1018290
03:00+3wsw49795 0.0 1019239
06:00+2wsw4108137 0.0 1019241
09:00+4w597992 0.0 1019494
12:00+6w786892 0.1 10201069
15:00+6wnw7967100 0.3 10191181
18:00+3nw71192100 0.9 1020904
21:00+2nw71395100 1.2 1021804
25 october, mon
mon2500:00+2nnw71174100 0.2 1023988
03:00+1nnw71176100 0.2 10251158
06:00+1n61079100 0.0 10271030
09:00+2n686797 0.1 10301178
12:00+4n675289 0.0 10311268
15:00+5n67457 0.0 10321324
18:00+2nne36585 0.0 1034138
21:000ne35644 0.0 1035112